Regional Weather Roundup
Issued by NWS

Home | Current Version | Previous Version | Graphics & Text | Print | Product List | Glossary On
Versions: 1 2 3 4 5 6 7 8 9 10 11 12 13 14 15 16 17 18 19 20 21 22 23 24 25 26 27 28 29 30 31 32 33 34 35 36 37 38 39 40 41 42 43 44 45 46 47 48 49 50
000
ASUS45 KABQ 192101
RWRNM
NEW MEXICO REGIONAL WEATHER ROUNDUP
NATIONAL WEATHER SERVICE ALBUQUERQUE NM
200 PM MST FRI JAN 19 2018

NOTE: "FAIR" MEANS FEW OR NO CLOUDS BELOW 12,000 FEET AGL WITH NO
       SIGNIFICANT WEATHER OR OBSTRUCTIONS TO VISION.

      THIS PRODUCT IS RELEASED AS TWO VERSIONS.  ONE VERSION NEAR
      THE TOP OF THE HOUR CONTAINING PRELIMINARY DATA FROM ALBUQUERQUE
      AND OTHER STATIONS.  A FINAL VERSION WITH ADDITIONAL DATA IS
      ISSUED ABOUT 10 MINUTES AFTER THE HOUR.

NMZ501-503-504-510>518-192200-
NORTHWEST PLATEAU/NORTHCENTRAL MOUNTAINS

CITY           SKY/WX    TMP DP  RH WIND       PRES   REMARKS
FARMINGTON     FAIR      55  18  23 E7        29.99F
LOS ALAMOS     FAIR      53   4  14 SE5       30.04F
SANTA FE       FAIR      52  15  23 SW12      30.00F
TAOS           FAIR      56   7  14 SW12      30.03F
ANGEL FIRE     FAIR      51   7  16 W14       30.04F

$$
NMZ402-403-502-505>509-192200-
WESTCENTRAL MOUNTAINS/SOUTHWEST MOUNTAINS

CITY           SKY/WX    TMP DP  RH WIND       PRES   REMARKS
GALLUP         FAIR      58   9  14 SW13      30.03F
GRANTS         FAIR      58  11  15 CALM      30.04F
SILVER CITY    FAIR      62  14  15 W15G22    30.06F

$$
NMZ407-409-411-412-192200-
SOUTHERN DESERTS

CITY           SKY/WX    TMP DP  RH WIND       PRES   REMARKS
DEMING         FAIR      65  20  17 SW13      30.04F
LAS CRUCES     FAIR      62  17  17 SW6       30.05F
HOLLOMAN AFB   FAIR      58  16  19 SE3       30.06F
ALAMOGORDO     FAIR      55  14  19 S6        30.05F
T OR C         FAIR      57  15  19 SW7       30.02F

$$
NMZ519>523-192200-
CENTRAL VALLEYS/CENTRAL HIGHLANDS

CITY           SKY/WX    TMP DP  RH WIND       PRES   REMARKS
ALBUQUERQUE    PTSUNNY   52  14  22 CALM      30.03F
DOUBLE EAGLE   PTSUNNY   52  16  24 SE5       30.04F
MORIARTY ARPT  FAIR      63  12  13 NW13      30.00F
CLINES CORNERS NOT AVBL
BELEN          FAIR      54  12  19 SE3       30.02F
SOCORRO        FAIR      55  12  18 S12G17    30.02F

$$
NMZ524>526-539-540-192200-
SOUTHCENTRAL MOUNTAINS

CITY           SKY/WX    TMP DP  RH WIND       PRES   REMARKS
RUIDOSO        NOT AVBL

$$
NMZ527>531-192200-
NORTHEAST HIGHLANDS/NORTHEAST PLAINS

CITY           SKY/WX    TMP DP  RH WIND       PRES   REMARKS
LAS VEGAS      FAIR      67  10  11 MISG      29.92F
RATON          FAIR      73   5   7 W14G29    29.84F
CLAYTON        FAIR      79   9   7 W16G23    29.75F

$$
NMZ532>537-192200-
EASTCENTRAL PLAINS

CITY           SKY/WX    TMP DP  RH WIND       PRES   REMARKS
TUCUMCARI      FAIR      73  13  10 SW14      29.77F
CANNON AFB     FAIR      68  12  11 W20       29.85F
CLOVIS AIRPORT FAIR      67  14  13 W22       29.84F

$$
NMZ028-029-538-192200-
SOUTHEAST PLAINS

CITY           SKY/WX    TMP DP  RH WIND       PRES   REMARKS
ROSWELL        FAIR      63  19  18 S5        29.89F
ARTESIA        FAIR      73  16  11 W8        29.89F
CARLSBAD       FAIR      71  15  11 MISG      29.90F
HOBBS          SUNNY     70   9   9 SW15G22   29.91F


$$




USA.gov is the U.S. government's official web portal to all federal, state and local government web resources and services.